Theta_e
335 344 354 354 352 351 351 352 352 351 351 350 349 348 348 348 347 346 346 344 345 344 344 344 343 342 343 342 341 342 342 341 339 343 347 346 346 354 355 355 355 353 355
335 345 354 354 352 351 351 351 351 351 350 350 348 347 346 346 346 346 345 345 344 343 342 342 342 342 342 343 343 343 344 345 343 341 346 351 346 350 356 354 354 354 354
340 346 350 353 352 351 351 351 350 350 350 349 348 347 346 345 345 345 345 345 346 345 344 342 341 339 339 340 342 342 344 350 347 344 344 346 344 346 348 351 352 353 354
344 345 346 353 352 351 351 351 350 350 350 350 349 348 348 347 346 345 346 346 346 346 346 345 345 345 341 340 341 341 341 351 350 346 342 344 346 348 345 348 349 350 352
341 343 346 353 352 352 351 351 351 350 351 351 350 350 349 349 349 348 347 346 346 346 347 347 347 347 347 343 342 342 342 344 350 342 338 345 347 348 347 347 349 348 348
339 342 347 353 354 353 353 352 352 351 351 351 351 351 351 350 351 350 350 349 348 348 348 348 349 349 348 347 345 343 342 340 343 344 346 347 347 351 351 349 347 344 344
340 343 349 355 355 355 354 353 353 352 352 352 352 352 351 350 349 348 345 345 346 348 348 349 350 352 352 350 347 345 342 339 329 340 344 345 347 350 350 351 350 348 346
342 340 340 347 355 356 356 355 355 354 354 353 353 352 350 348 347 347 345 344 345 345 345 345 348 351 353 353 348 346 343 339 331 334 339 341 343 350 349 349 349 348 346
337 336 336 337 344 351 357 357 356 355 355 353 353 351 349 348 345 343 344 344 343 343 344 345 346 346 348 346 351 346 343 341 330 331 334 337 341 348 348 348 348 348 347
335 338 337 339 341 341 348 354 355 355 354 351 347 346 344 341 342 343 343 344 344 345 344 345 346 347 347 346 342 342 340 343 333 325 326 329 339 345 346 347 346 346 345
332 330 331 331 334 340 344 345 347 350 347 343 341 342 336 334 335 338 340 341 342 343 343 344 345 347 345 342 339 338 337 335 330 326 323 329 337 341 339 339 340 341 340
325 325 325 327 328 335 339 337 339 337 336 335 334 333 332 331 333 333 334 337 337 340 340 340 342 344 342 337 337 336 335 332 332 330 326 332 336 340 338 336 335 334 333
324 323 323 323 324 326 333 333 332 331 331 331 331 330 329 329 328 327 325 326 329 334 332 333 334 337 335 334 336 336 336 333 331 331 332 334 337 341 339 337 336 333 332
320 320 320 320 320 321 326 332 330 329 328 327 327 328 325 325 323 322 320 321 322 325 328 329 330 331 331 330 331 332 334 332 330 330 327 335 342 341 339 337 335 332 331
318 319 318 318 317 318 320 327 329 327 324 323 321 321 321 318 317 317 316 316 317 319 322 325 328 328 329 330 332 333 332 331 330 331 330 335 341 340 336 337 336 333 332
316 316 317 315 316 317 319 324 326 325 323 319 318 318 317 315 314 313 314 314 314 315 317 320 320 326 327 327 327 328 330 330 330 331 330 330 332 332 334 336 336 334 334
315 316 316 316 314 315 317 319 320 320 320 318 317 317 317 314 312 312 312 313 313 313 314 315 316 319 319 318 317 323 326 327 329 328 330 329 330 334 334 335 336 338 338
315 315 315 316 314 313 313 313 315 316 316 317 315 315 315 316 314 312 311 312 313 313 312 312 313 313 314 314 313 317 319 323 325 327 328 328 328 330 331 335 336 336 336
315 315 313 314 312 312 312 312 312 313 313 314 314 314 315 316 316 312 312 312 312 312 312 311 311 311 312 312 312 315 314 315 317 324 326 327 327 327 325 328 332 334 334
316 315 312 312 311 312 312 312 312 312 312 313 313 315 315 315 316 314 313 312 312 311 311 311 310 311 311 311 310 310 311 312 313 316 317 324 324 325 326 323 322 328 330
317 314 312 310 309 310 310 310 309 309 310 311 312 314 315 315 316 314 313 312 311 310 310 311 310 309 310 311 309 310 309 310 312 312 314 316 317 319 321 320 321 321 325
317 315 312 310 308 308 309 309 309 309 310 310 311 312 314 314 315 315 312 311 311 309 309 309 309 308 309 310 308 305 303 307 310 310 312 313 312 314 317 318 320 319 319
316 315 313 310 308 308 309 309 309 309 310 309 310 310 311 313 314 314 312 311 310 309 308 308 309 308 305 308 309 307 304 302 305 309 310 310 312 312 313 315 316 316 317
315 316 313 311 309 309 309 308 307 306 305 307 307 308 310 312 312 313 311 310 309 309 308 308 310 308 307 305 308 310 309 308 305 304 308 308 310 310 312 312 312 313 314
316 313 312 309 308 308 309 308 307 307 307 308 308 308 309 310 311 311 311 309 308 309 309 308 308 307 307 306 306 307 307 307 306 305 303 305 308 310 310 310 310 310 312
313 312 311 309 308 309 309 309 308 308 308 308 308 307 307 308 309 309 309 308 308 308 308 307 307 307 307 307 307 307 306 305 304 305 302 304 304 306 308 308 308 309 310
Wind_Speed
5 5 9 7 6 6 7 7 8 8 7 7 6 5 5 4 4 4 4 4 5 5 7 7 7 7 8 9 9 8 7 5 4 2 5 6 6 3 7 6 6 6 5
7 6 9 7 6 5 5 4 5 5 4 4 4 4 3 2 2 1 2 3 3 4 4 5 5 6 8 9 10 10 9 7 7 6 6 7 6 5 6 6 6 7 7
6 5 3 6 5 3 3 3 2 2 1 1 1 1 1 2 3 3 3 3 4 5 5 5 5 3 4 6 8 11 11 12 7 8 8 4 4 6 5 6 5 5 7
7 5 3 4 3 1 1 1 1 1 1 2 3 4 5 5 6 6 6 6 6 7 8 9 9 8 4 6 8 9 12 10 7 6 7 5 5 6 5 4 4 4 4
8 6 3 2 2 2 2 2 2 3 4 5 6 7 8 8 8 9 10 9 10 10 10 10 11 11 10 8 8 9 10 10 9 5 3 5 3 4 4 5 4 3 3
6 4 4 1 3 5 4 4 4 5 5 6 8 9 10 10 10 11 11 11 11 12 13 13 13 12 11 9 7 7 8 7 6 4 1 3 3 7 7 6 4 4 3
4 2 3 3 6 6 6 5 6 6 7 8 9 10 11 11 11 12 13 14 15 14 14 14 14 14 12 10 6 7 7 9 3 3 2 3 2 7 5 6 5 5 5
5 5 6 7 7 7 7 7 6 7 8 8 9 11 12 11 11 12 12 13 14 13 14 14 13 14 13 12 8 5 7 8 4 4 3 2 3 6 5 5 5 3 4
7 7 7 7 9 7 7 7 7 8 9 8 10 12 13 14 14 14 14 13 12 12 14 15 14 13 12 13 11 5 7 9 1 3 5 3 5 5 7 7 6 6 4
6 9 9 7 8 5 4 8 10 10 9 13 16 15 14 13 14 14 14 14 14 14 14 15 15 15 14 13 9 5 3 10 3 4 4 4 8 9 9 9 9 8 7
10 11 10 11 9 7 6 8 10 14 15 13 11 13 9 5 7 11 12 15 14 14 15 15 17 14 13 6 4 4 2 1 2 2 3 10 12 12 11 10 10 9 8
10 9 9 9 11 9 9 8 8 8 7 7 7 6 6 7 8 9 11 16 17 16 15 14 15 13 10 2 3 4 1 2 1 3 4 13 14 13 12 10 8 8 9
4 8 11 11 9 9 8 5 4 4 5 6 9 7 6 6 5 5 5 6 7 13 6 9 7 4 3 2 4 4 3 4 3 5 10 17 16 14 12 9 7 6 5
9 10 10 9 8 8 5 5 4 5 5 4 5 7 6 4 6 6 5 7 6 6 8 7 5 6 5 5 5 6 4 4 4 3 8 18 17 14 11 8 5 4 3
11 7 8 9 8 6 6 4 5 5 4 4 6 7 6 6 5 5 5 5 6 6 6 6 7 5 5 6 6 5 3 3 3 2 3 17 14 10 4 7 6 4 4
6 6 7 8 7 6 5 6 5 3 4 5 5 5 7 5 5 5 5 6 6 6 6 5 6 6 5 5 6 6 5 4 5 3 2 2 1 1 4 5 5 3 3
3 4 7 7 8 8 8 7 5 5 5 6 5 7 8 6 6 5 5 5 5 6 7 7 6 4 4 4 3 4 3 5 5 5 4 2 3 9 9 16 13 13 11
5 7 7 7 7 8 7 5 4 5 4 5 5 5 7 8 8 6 5 6 6 6 5 5 4 5 5 5 4 3 3 3 5 7 5 4 3 3 5 13 16 19 18
6 7 8 7 8 6 6 5 5 6 6 4 4 5 8 7 6 4 4 5 6 5 5 6 3 3 3 6 7 5 4 3 3 3 6 5 5 4 3 9 19 20 11
7 6 7 4 6 6 5 4 5 4 4 4 5 6 8 5 7 6 6 6 6 5 6 6 5 4 3 4 6 6 4 4 5 3 3 1 2 3 3 5 3 2 1
5 4 6 7 7 5 4 3 3 3 3 4 5 7 7 8 9 8 6 7 7 6 6 6 4 5 3 5 4 4 3 3 6 6 6 6 6 3 3 2 2 3 4
1 3 6 6 6 4 3 1 1 2 2 2 3 5 6 9 9 8 6 7 7 6 7 6 6 4 3 4 3 1 4 3 4 6 6 6 7 5 6 5 4 4 4
1 1 2 5 6 4 4 2 3 3 2 4 4 3 5 6 7 7 8 6 7 5 5 5 5 6 4 3 4 3 3 2 4 3 6 7 7 6 5 5 7 7 7
2 1 1 3 3 4 6 5 5 2 2 2 3 3 4 6 7 7 7 7 6 5 6 5 6 3 3 4 3 4 0 1 2 3 3 4 6 6 7 6 6 7 7
4 3 2 2 4 4 4 4 2 2 1 2 2 5 6 5 5 7 7 7 6 5 5 6 7 7 3 3 3 2 2 2 1 1 3 3 3 5 5 5 5 5 6
3 3 3 2 2 3 3 3 3 3 4 4 4 3 4 3 4 6 7 6 5 6 6 5 5 6 7 4 4 3 2 1 1 0 1 1 2 1 2 3 4 3 3
Wind_Direction
239 189 178 176 167 154 133 124 118 112 105 104 104 99 91 85 73 61 52 39 27 22 14 16 29 34 28 26 24 17 4 340 315 257 168 153 147 113 146 125 109 114 113
147 169 180 179 176 156 128 108 98 95 106 117 120 116 109 99 92 52 18 4 357 356 356 354 6 14 10 8 6 4 354 318 282 248 198 173 163 142 138 141 126 124 118
109 125 172 182 182 161 125 107 90 94 109 85 38 26 12 350 334 327 323 322 322 320 317 319 327 354 1 359 357 357 350 343 241 238 222 178 163 158 153 148 144 119 111
95 63 36 200 192 170 167 139 160 253 289 315 318 317 316 320 318 314 308 305 306 307 308 312 314 317 335 342 343 356 356 359 355 257 200 183 190 162 150 154 149 139 126
62 51 8 232 243 220 224 238 259 285 310 320 319 318 317 318 314 309 306 306 306 304 300 299 302 307 315 326 335 346 358 2 17 29 149 175 199 163 156 158 174 157 149
55 38 327 268 269 257 250 264 283 294 305 308 310 316 313 308 309 303 298 294 295 296 296 296 296 294 294 304 314 327 342 353 12 27 65 208 195 180 181 180 172 174 168
49 339 329 250 255 265 267 274 282 300 307 309 314 314 314 316 311 308 311 311 308 299 295 293 290 290 289 283 293 311 326 331 342 285 254 291 250 249 208 190 195 193 175
46 7 349 328 278 256 268 276 286 294 301 307 312 320 316 321 324 327 325 322 310 306 304 297 293 289 286 285 281 281 301 312 346 239 224 251 282 223 208 208 194 195 217
24 7 351 343 349 300 271 283 297 303 307 321 338 342 350 350 4 357 348 338 330 316 301 290 277 279 275 279 276 282 299 291 194 239 235 211 254 210 198 193 181 152 130
12 24 4 355 3 16 338 326 324 326 331 3 20 17 22 17 3 360 353 346 352 333 311 284 273 267 271 260 255 222 306 312 259 224 244 229 215 219 207 204 196 168 152
23 17 13 13 12 3 20 3 5 17 28 27 25 27 27 25 16 14 2 359 354 349 344 327 299 272 267 236 259 252 216 132 214 243 253 240 223 213 208 208 207 191 174
18 8 16 9 13 10 24 19 31 39 34 32 26 33 45 44 32 20 4 3 3 354 347 350 330 303 301 318 309 323 144 202 293 278 266 247 228 216 205 208 210 216 179
13 27 12 15 10 16 22 20 28 35 46 34 33 27 32 37 27 14 358 0 350 353 351 338 351 347 342 281 294 288 289 204 197 237 249 244 210 214 213 201 201 213 205
41 27 17 15 14 9 1 23 31 51 48 37 27 32 31 30 20 10 6 356 353 345 339 341 344 349 347 309 285 286 246 231 217 227 237 237 202 198 221 208 193 197 199
47 15 9 18 10 1 19 10 30 24 52 63 38 32 31 33 27 7 2 358 354 347 346 344 347 348 345 348 350 327 283 244 255 247 244 228 199 183 209 231 201 202 215
44 25 11 20 15 12 25 32 33 20 11 48 45 30 35 37 24 13 2 359 358 348 340 345 353 352 360 13 355 346 317 254 264 283 325 314 79 216 209 250 216 197 260
50 33 20 25 16 29 22 24 23 19 22 35 28 25 27 32 24 13 4 358 347 342 348 353 356 345 352 350 358 325 298 269 264 246 212 234 266 273 276 272 277 274 273
59 38 32 26 29 37 33 22 21 19 21 28 28 20 21 23 21 9 6 359 341 347 347 354 346 334 347 352 331 311 328 277 250 231 236 199 213 233 269 276 280 277 259
57 34 28 20 31 38 41 37 31 28 33 22 28 26 20 14 11 5 359 343 344 348 351 347 335 346 326 341 325 315 331 336 302 263 252 229 203 216 203 246 250 253 250
50 34 30 10 24 28 39 26 21 31 18 19 16 18 10 359 8 9 354 353 351 350 348 347 335 330 298 323 323 323 320 359 22 36 358 269 200 205 142 230 242 314 173
42 31 24 29 6 18 17 5 5 355 342 6 10 4 3 2 8 4 349 348 354 354 341 347 329 334 322 342 336 341 331 354 33 33 26 39 49 56 164 132 66 45 54
150 35 22 20 24 24 31 340 347 343 357 334 332 356 0 7 1 353 347 345 347 343 351 357 4 333 311 2 346 286 356 336 8 25 30 38 39 38 54 48 52 47 42
157 46 35 28 20 32 30 34 15 15 1 354 356 343 346 356 353 354 350 347 341 345 344 342 0 11 336 319 5 6 343 357 318 2 28 29 31 38 39 36 42 39 38
185 167 53 31 35 33 25 46 49 48 3 318 305 309 332 356 355 353 349 343 340 338 352 346 354 351 349 357 335 8 343 292 354 337 41 26 29 39 39 41 44 42 32
158 184 162 64 42 38 40 49 41 30 323 306 327 343 349 343 354 349 348 341 343 339 342 356 358 3 8 348 351 330 345 343 44 249 311 353 27 29 40 40 38 35 25
173 179 170 107 47 27 19 3 16 13 356 4 347 341 333 326 333 343 341 337 334 346 354 350 351 13 13 12 357 337 314 317 333 298 275 320 283 51 48 46 42 37 15